Weather History for St. James, MN

Change the Weather History Date:

Monday, December 31, 2012

  Actual Average Record
Temperature  
Mean Temperature 10 °F -  
Max Temperature 21 °F 20 °F 46 °F (1999)
Min Temperature -2 °F 4 °F -21 °F (1976)
Degree Days  
Heating Degree Days 56    
Moisture  
Dew Point 2 °F    
Average Humidity 66    
Maximum Humidity 80    
Minimum Humidity 49    
Precipitation  
Precipitation 0.00 in - - ()
Sea Level Pressure  
Sea Level Pressure 30.19 in    
Wind  
Wind Speed 13 mph (NW)    
Max Wind Speed 22 mph    
Max Gust Speed 28 mph    
Visibility 10 miles    
Events      
Averages and records for this station are not official NWS values.
T = Trace of Precipitation, MM = Missing Value Source: NWS Daily Summary

Daily Weather History Graph

Daily Weather History Graph

Search for Another Location

Airport:

Trip Planner

Search our weather history database for the weather conditions in past years. The results will help you decide how hot, cold, wet, or windy it might be!

Date:

Astronomy

Dec. 31, 2012 Rise Set
Actual Time 7:52 AM CST 4:50 PM CST
Civil Twilight 7:19 AM CST 5:23 PM CST
Nautical Twilight 6:43 AM CST 5:59 PM CST
Astronomical Twilight 6:08 AM CST 6:34 PM CST
Moon 8:29 PM CST (12/31) 9:27 AM CST (12/31)
Length of Visible Light 10h 03m
Length of Day
8h 57m
Waning Gibbous, 90% of the Moon is Illuminated
Dec 31
Waning Gibbous
Jan 4
Last Quarter
Jan 11
New
Jan 18
First Quarter
Jan 26
Full

Hourly Weather History & Observations

Time (CST) Temp. Windchill Dew Point Humidity Pressure Visibility Wind Dir Wind Speed Gust Speed Precip Events Conditions
12:15 AM 19.4 °F 6.0 °F 12.2 °F 74% 30.05 in 10.0 mi WNW 13.8 mph - N/A   Overcast
12:35 AM 19.4 °F 5.5 °F 12.2 °F 74% 30.05 in 10.0 mi WNW 15.0 mph - N/A   Overcast
12:55 AM 21.2 °F 5.6 °F 15.8 °F 80% 30.05 in 10.0 mi WNW 20.7 mph - N/A   Overcast
1:15 AM 21.2 °F 6.0 °F 15.8 °F 80% 30.06 in 10.0 mi WNW 19.6 mph 23.0 mph N/A   Overcast
1:35 AM 21.2 °F 6.8 °F 15.8 °F 80% 30.07 in 10.0 mi WNW 17.3 mph 27.6 mph N/A   Overcast
1:55 AM 21.2 °F 7.3 °F 15.8 °F 80% 30.08 in 10.0 mi WNW 16.1 mph 21.9 mph N/A   Overcast
2:14 AM 21.2 °F 5.6 °F 15.8 °F 80% 30.09 in 7.0 mi WNW 20.7 mph 25.3 mph N/A   Overcast
2:35 AM 19.4 °F 4.5 °F 10.4 °F 68% 30.11 in 7.0 mi WNW 17.3 mph 27.6 mph N/A   Mostly Cloudy
2:55 AM 17.6 °F 1.3 °F 10.4 °F 73% 30.12 in 10.0 mi WNW 19.6 mph 26.5 mph N/A   Scattered Clouds
3:15 AM 17.6 °F 0.5 °F 10.4 °F 73% 30.14 in 10.0 mi NW 21.9 mph 27.6 mph N/A   Scattered Clouds
3:35 AM 17.6 °F 2.2 °F 10.4 °F 73% 30.13 in 10.0 mi NW 17.3 mph - N/A   Scattered Clouds
3:55 AM 17.6 °F 3.2 °F 8.6 °F 68% 30.12 in 10.0 mi NW 15.0 mph - N/A   Clear
4:15 AM 17.6 °F 5.0 °F 8.6 °F 68% 30.14 in 10.0 mi NW 11.5 mph - N/A   Mostly Cloudy
4:35 AM 15.8 °F 3.4 °F 8.6 °F 73% 30.13 in 10.0 mi NW 10.4 mph - N/A   Scattered Clouds
4:54 AM 15.8 °F - 6.8 °F 68% 30.16 in 10.0 mi Calm Calm - N/A   Clear
5:15 AM 12.2 °F -0.2 °F 6.8 °F 79% 30.15 in 10.0 mi NW 9.2 mph - N/A   Clear
5:35 AM 15.8 °F 0.3 °F 6.8 °F 68% 30.15 in 10.0 mi NW 16.1 mph - N/A   Clear
6:15 AM 15.8 °F 2.1 °F 6.8 °F 68% 30.15 in 10.0 mi NW 12.7 mph - N/A   Clear
6:35 AM 15.8 °F 4.2 °F 6.8 °F 68% 30.16 in 10.0 mi NW 9.2 mph - N/A   Clear
6:54 AM 14.0 °F 1.2 °F 6.8 °F 73% 30.16 in 10.0 mi NW 10.4 mph - N/A   Clear
7:15 AM 14.0 °F -1.4 °F 5.0 °F 67% 30.16 in 10.0 mi NW 15.0 mph - N/A   Clear
7:35 AM 14.0 °F -2.0 °F 5.0 °F 67% 30.17 in 10.0 mi NW 16.1 mph - N/A   Clear
7:54 AM 14.0 °F -0.2 °F 3.2 °F 62% 30.17 in 10.0 mi NW 12.7 mph - N/A   Clear
8:15 AM 12.2 °F -3.1 °F 3.2 °F 67% 30.18 in 10.0 mi NW 13.8 mph - N/A   Clear
8:35 AM 12.2 °F -3.1 °F 3.2 °F 67% 30.18 in 10.0 mi NW 13.8 mph - N/A   Clear
8:55 AM 14.0 °F -2.0 °F 3.2 °F 62% 30.19 in 10.0 mi NW 16.1 mph - N/A   Clear
9:15 AM 14.0 °F -2.0 °F 3.2 °F 62% 30.20 in 10.0 mi NW 16.1 mph - N/A   Clear
9:35 AM 14.0 °F -2.0 °F 3.2 °F 62% 30.21 in 10.0 mi NW 16.1 mph - N/A   Clear
9:55 AM 14.0 °F -3.4 °F 3.2 °F 62% 30.20 in 10.0 mi NW 19.6 mph - N/A   Clear
10:14 AM 15.8 °F -0.2 °F 3.2 °F 58% 30.20 in 10.0 mi NW 17.3 mph 20.7 mph N/A   Clear
10:35 AM 14.0 °F -3.9 °F 1.4 °F 57% 30.20 in 10.0 mi NW 20.7 mph 25.3 mph N/A   Clear
10:55 AM 14.0 °F -2.0 °F 1.4 °F 57% 30.21 in 10.0 mi NW 16.1 mph - N/A   Clear
11:15 AM 14.0 °F -2.5 °F 1.4 °F 57% 30.21 in 10.0 mi NW 17.3 mph - N/A   Clear
11:35 AM 14.0 °F -2.5 °F -0.4 °F 53% 30.20 in 10.0 mi NW 17.3 mph - N/A   Clear
11:55 AM 14.0 °F -0.2 °F -0.4 °F 53% 30.21 in 10.0 mi NW 12.7 mph - N/A   Clear
12:15 PM 14.0 °F 0.5 °F -0.4 °F 53% 30.21 in 10.0 mi NW 11.5 mph - N/A   Clear
12:33 PM 15.8 °F 1.4 °F -0.4 °F 49% 30.21 in 10.0 mi NW 13.8 mph - N/A   Clear
12:55 PM 14.0 °F 0.5 °F -0.4 °F 53% 30.20 in 10.0 mi NW 11.5 mph - N/A   Clear
1:15 PM 14.0 °F 0.5 °F -0.4 °F 53% 30.19 in 10.0 mi WNW 11.5 mph - N/A   Clear
1:35 PM 14.0 °F -0.2 °F -0.4 °F 53% 30.19 in 10.0 mi NW 12.7 mph - N/A   Clear
1:55 PM 12.2 °F -1.8 °F -0.4 °F 57% 30.19 in 10.0 mi WNW 11.5 mph - N/A   Clear
2:15 PM 12.2 °F -1.0 °F 1.4 °F 62% 30.19 in 10.0 mi WNW 10.4 mph - N/A   Clear
2:35 PM 12.2 °F -0.2 °F -0.4 °F 57% 30.20 in 10.0 mi WNW 9.2 mph - N/A   Clear
2:54 PM 12.2 °F -1.0 °F -0.4 °F 57% 30.21 in 10.0 mi NW 10.4 mph - N/A   Clear
3:15 PM 12.2 °F 2.9 °F -0.4 °F 57% 30.21 in 10.0 mi WNW 5.8 mph - N/A   Clear
3:35 PM 12.2 °F 1.7 °F -0.4 °F 57% 30.21 in 10.0 mi WNW 6.9 mph - N/A   Clear
3:54 PM 10.4 °F -3.3 °F -0.4 °F 62% 30.20 in 10.0 mi NW 10.4 mph - N/A   Clear
4:15 PM 10.4 °F -3.3 °F -2.2 °F 57% 30.21 in 10.0 mi WNW 10.4 mph - N/A   Clear
4:35 PM 8.6 °F -4.7 °F -2.2 °F 62% 30.21 in 10.0 mi WNW 9.2 mph - N/A   Clear
4:55 PM 8.6 °F -3.7 °F -2.2 °F 62% 30.21 in 10.0 mi WNW 8.1 mph - N/A   Clear
5:15 PM 6.8 °F -5.9 °F -4.0 °F 61% 30.22 in 10.0 mi WNW 8.1 mph - N/A   Clear
5:35 PM 6.8 °F -6.9 °F -4.0 °F 61% 30.22 in 10.0 mi WNW 9.2 mph - N/A   Clear
5:55 PM 5.0 °F -10.0 °F -4.0 °F 66% 30.22 in 10.0 mi WNW 10.4 mph - N/A   Clear
5:59 PM 5.0 °F -9.1 °F -4.0 °F 66% 30.22 in 10.0 mi WNW 9.2 mph - N/A   Clear
6:35 PM 3.2 °F -10.3 °F -5.8 °F 66% 30.23 in 10.0 mi WNW 8.1 mph - N/A   Clear
6:55 PM 1.4 °F - -5.8 °F 72% 30.23 in 10.0 mi Calm Calm - N/A   Clear
7:15 PM 1.4 °F - -5.8 °F 72% 30.23 in 10.0 mi Calm Calm - N/A   Clear
7:35 PM 1.4 °F - -5.8 °F 72% 30.24 in 10.0 mi Calm Calm - N/A   Clear
7:55 PM 1.4 °F - -5.8 °F 72% 30.24 in 10.0 mi Calm Calm - N/A   Clear
8:15 PM 1.4 °F -13.5 °F -5.8 °F 72% 30.24 in 10.0 mi WNW 9.2 mph - N/A   Clear
8:35 PM 1.4 °F -13.5 °F -7.6 °F 66% 30.24 in 10.0 mi WNW 9.2 mph - N/A   Clear
8:55 PM -0.4 °F - -7.6 °F 72% 30.24 in 10.0 mi Calm Calm - N/A   Clear
9:15 PM -0.4 °F - -7.6 °F 72% 30.23 in 10.0 mi Calm Calm - N/A   Clear
9:35 PM -0.4 °F - -9.4 °F 66% 30.23 in 10.0 mi Calm Calm - N/A   Clear
10:15 PM -0.4 °F - -7.6 °F 72% 30.25 in 10.0 mi Calm Calm - N/A   Clear
10:35 PM -0.4 °F - -7.6 °F 72% 30.25 in 10.0 mi Calm Calm - N/A   Clear
10:55 PM -0.4 °F - -9.4 °F 66% 30.26 in 10.0 mi Calm Calm - N/A   Clear
11:15 PM -2.2 °F - -9.4 °F 71% 30.26 in 10.0 mi Calm Calm - N/A   Clear
11:35 PM -0.4 °F - -9.4 °F 66% 30.27 in 10.0 mi Calm Calm - N/A   Clear
11:55 PM -2.2 °F - -9.4 °F 71% 30.27 in 10.0 mi Calm Calm - N/A   Clear